星链-32659 (STARLINK-32659)

导读

STARLINK-32659是美国太空探索技术公司(SpaceX)星链互联网卫星星座的一员,于2024年12月23日发射入轨。星链项目旨在打造全球卫星互联网星座,为全球偏远地区、海洋等地面网络难以覆盖区域提供高速互联网服务,该卫星服役后将进一步扩充星链星座的组网规模,提升星座服务覆盖与性能。

基本信息
目录编号:
62427
目录名称:
STARLINK-32659
国际标识:
2024-249U
轨道中心:
EARTH
卫星名称:
星链-32659
卫星全名:
星链-32659 (STARLINK-32659)
卫星状态:
在轨 (已飞行627 天)
发射日期:
2024-12-23 UTC
国别 :
美国 (US)
星等 :
--
该卫星已列入 空间交会检测服务 Space Conjunction Data Service (SCDS) ,当前飞行风险评估等级: 无高风险
轨道信息
数据来源 国际轨道数据
星历时间: 2026-09-11T14:42:24+0800
13小时前
查看轨道信息
半长轴: 6861.169km
偏心率: 0.0002098
轨道倾角: 43.001°
近地点辐角 276.092°
升交点赤经 346.269°
平近点角 83.970°
近地点: 481.592km
远地点: 484.472km
周期: 94.266分钟
每日圈数: 15.275858
详细信息
固有亮度:
5
最大亮度:
2.5
卫星平台:
Starlink V1.0
覆盖范围:
全球
运营商:
太空探索技术公司
运营商所在国:
美国
制造商(研发单位):
太空探索技术公司
制造商所在国:
美国
使用方式:
暂无
卫星简介
Starlink 计划是 SpaceX 推出的全球卫星互联网项目,通过发射低轨道卫星,为全球尤其是偏远地区提供高速、低延迟的互联网服务。自 2019 年起,Starlink 已部署数千颗卫星,旨在缩小全球数字鸿沟,推动互联网普及。该项目还为军事、航空等行业提供通信支持,带来广泛经济效益。
2D轨道图
3D轨道图
轨道高度分析图
轨道倾角分析图
轨道综合分析图
查看轨道综合分析图
交会数据列表
事件ID 空间交会对象 最接近时刻(TCA) 交会距离 交会风险概率(CRP) 交会风险指数(CRI) 操作
CDM_260912-185806-242706-455821
QUICK3 (64558)
2026-09-12T
18:58:19+0000
2.349 km
极远距离
1.361458E-6 低风险 0.38
与全量物体交会距离演化趋势
与全量物体交会风险概率演化趋势